Bolton Field, OH

9:24 AM EDT on July 29, 2017 (GMT -0400)
Bolton

Weather History for KTZR - October, 2013

Change the Weather History Date:

Tuesday, October 1, 2013

  Actual Average Record
Temperature  
Mean Temperature 66 °F -  
Max Temperature 78 °F 70 °F 86 °F (2002)
Min Temperature 53 °F 49 °F 39 °F (1997)
Growing Degree Days 16 (Base 50)    
Moisture  
Dew Point 57 °F    
Average Humidity 90    
Maximum Humidity 100    
Minimum Humidity 51    
Precipitation  
Precipitation 0.00 in - - ()
Sea Level Pressure  
Sea Level Pressure 30.05 in    
Wind  
Wind Speed 3 mph (SW)    
Max Wind Speed 15 mph    
Max Gust Speed -    
Visibility 6 miles    
Events Fog    
Averages and records for this station are not official NWS values.
T = Trace of Precipitation, MM = Missing Value Source: NWS Daily Summary

Daily Weather History Graph

Daily Weather History Graph

Search for Another Location

Airport or City:

Trip Planner

Search our weather history database for the weather conditions in past years. The results will help you decide how hot, cold, wet, or windy it might be!

Date:

Astronomy

Oct. 01, 2013 Rise Set
Actual Time 7:29 AM EDT 7:14 PM EDT
Civil Twilight 7:02 AM EDT 7:41 PM EDT
Nautical Twilight 6:30 AM EDT 8:12 PM EDT
Astronomical Twilight 5:59 AM EDT 8:44 PM EDT
Moon 4:02 AM EDT (10/1) 5:17 PM EDT (10/1)
Length of Visible Light 12h 39m
Length of Day
11h 45m
Waning Crescent, 12% of the Moon is Illuminated
Oct 1
Waning Crescent
Oct 4
New
Oct 11
First Quarter
Oct 18
Full
Oct 26
Last Quarter

Hourly Weather History & Observations

Time (EDT) Temp. Dew Point Humidity Pressure Visibility Wind Dir Wind Speed Gust Speed Precip Events Conditions
12:15 AM 56.8 °F 56.8 °F 100% 30.03 in 3.0 mi Calm Calm - N/A   Scattered Clouds
12:35 AM 57.6 °F 57.6 °F 100% 30.03 in 4.0 mi Calm Calm - N/A   Mostly Cloudy
12:55 AM 56.3 °F 56.3 °F 100% 30.03 in 3.0 mi Calm Calm - N/A   Mostly Cloudy
1:15 AM 55.6 °F 55.6 °F 100% 30.03 in 2.5 mi Calm Calm - N/A   Scattered Clouds
1:35 AM 56.1 °F 56.1 °F 100% 30.03 in 2.5 mi Calm Calm - N/A   Mostly Cloudy
1:55 AM 57.7 °F 57.7 °F 100% 30.03 in 3.0 mi SW 3.5 mph - N/A   Mostly Cloudy
2:15 AM 58.1 °F 58.1 °F 100% 30.03 in 4.0 mi SSW 4.6 mph - N/A   Clear
2:35 AM 57.7 °F 57.7 °F 100% 30.04 in 2.5 mi SSW 3.5 mph - N/A   Clear
2:55 AM 57.2 °F 57.2 °F 100% 30.04 in 3.0 mi SSW 4.6 mph - N/A   Clear
3:15 AM 55.8 °F 55.8 °F 100% 30.04 in 0.8 mi SSW 3.5 mph - N/A   Mist
3:35 AM 55.4 °F 55.4 °F 100% 30.04 in 0.8 mi SSW 3.5 mph - N/A   Mist
3:55 AM 55.4 °F 55.4 °F 100% 30.03 in 0.5 mi Calm Calm - N/A Fog Fog
4:15 AM 55.9 °F 55.9 °F 100% 30.03 in 1.0 mi Calm Calm - N/A   Scattered Clouds
4:35 AM 54.7 °F 54.7 °F 100% 30.04 in 1.5 mi South 3.5 mph - N/A   Mist
4:55 AM 53.6 °F 53.6 °F 100% 30.04 in 1.5 mi Calm Calm - N/A   Scattered Clouds
5:15 AM 53.4 °F 53.4 °F 100% 30.04 in 0.8 mi Calm Calm - N/A   Mist
5:35 AM 54.1 °F 54.1 °F 100% 30.05 in 0.2 mi Calm Calm - N/A Fog Fog
5:55 AM 54.9 °F 54.9 °F 100% 30.05 in 0.5 mi SW 3.5 mph - N/A Fog Fog
6:15 AM 53.6 °F 53.6 °F 100% 30.06 in 0.2 mi SSW 3.5 mph - N/A Fog Fog
6:35 AM 54.0 °F 54.0 °F 100% 30.06 in 0.5 mi South 3.5 mph - N/A Fog Fog
6:55 AM 53.2 °F 53.2 °F 100% 30.07 in 0.8 mi Calm Calm - N/A   Mostly Cloudy
7:15 AM 53.2 °F 53.2 °F 100% 30.08 in 0.2 mi Calm Calm - N/A Fog Fog
7:50 AM 53.6 °F 53.6 °F 100% 30.09 in 0.8 mi Calm Calm - N/A   Mist
8:50 AM 57.2 °F 57.2 °F 100% 30.10 in 4.0 mi Calm Calm - N/A   Clear
9:50 AM 64.4 °F 62.6 °F 94% 30.10 in 10.0 mi SW 5.8 mph - N/A   Clear
10:50 AM 71.6 °F 62.6 °F 73% 30.10 in 10.0 mi SW 8.1 mph - N/A   Mostly Cloudy
1:50 PM 75.2 °F 60.8 °F 61% 30.07 in 10.0 mi WSW 15.0 mph - N/A   Mostly Cloudy
2:50 PM 78.8 °F 59.0 °F 51% 30.05 in 10.0 mi WSW 8.1 mph - N/A   Mostly Cloudy
3:47 PM 77.0 °F 59.0 °F 54% 30.04 in 10.0 mi SW 10.4 mph - N/A   Scattered Clouds
4:47 PM 77.0 °F 60.8 °F 57% 30.04 in 10.0 mi WSW 13.8 mph - N/A   Scattered Clouds
5:50 PM 75.2 °F 59.0 °F 57% 30.03 in 10.0 mi WSW 6.9 mph - N/A   Scattered Clouds
6:47 PM 73.4 °F 60.8 °F 65% 30.03 in 10.0 mi SW 5.8 mph - N/A   Partly Cloudy
7:35 PM 68.7 °F 59.0 °F 71% 30.04 in 10.0 mi SW 3.5 mph - N/A   Clear
7:55 PM 66.2 °F 59.0 °F 78% 30.04 in 10.0 mi WSW 3.5 mph - N/A   Clear
8:15 PM 64.9 °F 58.8 °F 81% 30.04 in 10.0 mi SW 5.8 mph - N/A   Clear
8:35 PM 64.9 °F 58.8 °F 81% 30.04 in 10.0 mi SW 3.5 mph - N/A   Clear
8:55 PM 63.1 °F 58.5 °F 85% 30.05 in 10.0 mi SW 4.6 mph - N/A   Clear
9:15 PM 62.4 °F 58.3 °F 86% 30.05 in 10.0 mi SSW 4.6 mph - N/A   Clear
9:35 PM 60.4 °F 57.7 °F 91% 30.05 in 10.0 mi SSW 4.6 mph - N/A   Clear
9:55 PM 60.4 °F 57.6 °F 90% 30.06 in 10.0 mi SSW 4.6 mph - N/A   Clear
10:15 PM 61.2 °F 58.5 °F 91% 30.06 in 10.0 mi SSW 4.6 mph - N/A   Clear
10:35 PM 61.7 °F 58.5 °F 89% 30.06 in 10.0 mi SSW 4.6 mph - N/A   Clear
10:55 PM 59.7 °F 57.6 °F 93% 30.06 in 10.0 mi SW 4.6 mph - N/A   Clear
11:15 PM 59.9 °F 58.1 °F 94% 30.06 in 10.0 mi SSW 4.6 mph - N/A   Clear
11:35 PM 59.0 °F 57.7 °F 96% 30.06 in 10.0 mi SW 3.5 mph - N/A   Clear
11:55 PM 59.4 °F 58.3 °F 96% 30.06 in 10.0 mi SW 4.6 mph - N/A   Clear